Location: Bouchavesnes-Bergen
(49.9859°N, 2.9203°E)
Time: 05:00:33
(UTC+00:00)

USA 234 - Pass Details

Date: 09 March 2021
Orbit: 1102 x 1105 km, 123.0° (Epoch: 08 April)

Event Time Altitude Azimuth Distance (km) Brightness Sun altitude
Rises 04:01:48 0° 154° (SSE) 3,908 6.2 -21.9°
Reaches altitude 10° 04:04:30 10° 162° (SSE) 2,954 5.5 -21.5°
Maximum altitude 04:10:27 37° 228° (SW) 1,654 3.7 -20.6°
Enters shadow 04:11:38 34° 250° (WSW) 1,726 3.7 -20.4°
